Вернуться в каталог

BEIDOU 3 IGSO-1

АктивенНавигацияGEO
NORAD 44204·PAYLOAD·🇨🇳 China

Запущен Apr 20, 2019 с Xichang Satellite Launch Center

Loading…

TLE

СвежийSource: Space-Track

Эпоха: Sep 13, 2026, 21:30 UTC

1 44204U 19023A   26256.89610309 -.00000216  00000-0  00000-0 0  9996
2 44204  58.8231  36.7420 0027803 223.4337 174.0981  1.00266072  8102

Отслеживайте BEIDOU 3 IGSO-1 в реальном времени с AllMySat

Download on the App Store